Location: Colonia Mina de C?rbuni
(46.1667°N, 22.7167°E)
Time: 08:31:57
(UTC+00:00)

Transit 4A - Visible Passes

Search period start: 17 April 2024 00:00
Search period end: 27 April 2024 00:00
Orbit: 871 x 972 km, 66.8° (Epoch: 16 April)

Date Brightness Start Highest point End Pass type
(mag) Time Alt. Az. Time Alt. Az. Time Alt. Az.
17 Apr 9.6 18:23:21 10° NNW 18:27:19 18° NNE 18:31:17 10° ENE visible
17 Apr 7.8 20:08:57 10° NNW 20:14:46 67° NE 20:15:31 61° E visible
17 Apr 9.6 21:56:10 10° WNW 21:59:01 20° W 21:59:01 20° W visible
18 Apr 9.3 18:32:11 10° NNW 18:36:46 23° NE 18:40:56 11° E visible
18 Apr 7.6 20:17:59 10° NW 20:23:51 87° WSW 20:24:26 74° SSE visible
18 Apr 10.0 22:06:11 10° WNW 22:07:56 14° W 22:07:56 14° W visible
19 Apr 9.0 18:41:04 10° NNW 18:46:08 30° NE 18:49:53 16° E visible
19 Apr 7.9 20:27:07 10° NW 20:32:51 62° WSW 20:33:23 59° SW visible
20 Apr 8.6 18:49:58 10° NNW 18:55:26 39° NE 18:58:52 21° ESE visible
20 Apr 8.4 20:36:20 10° NW 20:41:48 42° WSW 20:42:22 41° SW visible
21 Apr 8.1 18:58:55 10° NNW 19:04:38 54° NE 19:07:53 25° ESE visible
21 Apr 9.0 20:45:44 10° NW 20:50:39 29° WSW 20:51:23 28° WSW visible
22 Apr 7.8 19:07:55 10° NNW 19:13:46 75° NE 19:16:57 28° SE visible
22 Apr 9.5 20:55:23 10° WNW 20:59:27 20° WSW 21:00:27 19° WSW visible
23 Apr 7.8 19:17:00 10° NW 19:22:50 79° WSW 19:26:02 28° SSE visible
23 Apr 10.0 21:05:40 10° WNW 21:08:12 13° WSW 21:09:33 12° WSW visible
24 Apr 8.2 19:26:08 10° NW 19:31:48 55° WSW 19:35:11 24° S visible
25 Apr 8.8 19:35:24 10° NW 19:40:44 38° WSW 19:44:23 19° S visible
26 Apr 8.0 17:57:53 10° NNW 18:03:39 59° NE 18:09:27 10° SE visible
26 Apr 9.4 19:44:51 10° NW 19:49:34 26° WSW 19:53:38 13° SSW visible
